When you browse on this site, cookies collect data to enhance your experience and personalize the content and advertising you see.
Visit our Privacy Policy to learn more. By continuing to use the site, you agree to this use of cookies and data.
  • In United Kingdom
  • List of Countries
  • For 7 days
  • Water Temperature
  • Satellite Maps
  • Weather Map
  • Weather Widgets
  • user-avatar
    Login

    Hourly Weather Kefar Sava

    Today, 20 May, Monday

    Time Temperature Precipitation Wind Pressure Humidity
    00:00 +22°C° 0 mm 1 mps 755 mmHg 82%
    01:00 +22°C° 0 mm 1 mps 755 mmHg 83%
    02:00 +21°C° 0 mm 1 mps 755 mmHg 84%
    03:00 +21°C° 0 mm 1 mps 755 mmHg 85%
    04:00 +21°C° 0 mm 1 mps 755 mmHg 85%
    05:00 +19°C° 0 mm 0 mps 755 mmHg 86%
    06:00 +22°C° 0 mm 1 mps 756 mmHg 77%
    07:00 +23°C° 0 mm 1 mps 756 mmHg 68%
    08:00 +25°C° 0 mm 1 mps 756 mmHg 59%
    09:00 +26°C° 0 mm 2 mps 756 mmHg 53%
    10:00 +28°C° 0 mm 3 mps 756 mmHg 47%
    11:00 +30°C° 0 mm 3 mps 756 mmHg 41%
    12:00 +30°C° 0 mm 4 mps 756 mmHg 41%
    13:00 +30°C° 0 mm 5 mps 756 mmHg 42%
    14:00 +30°C° 0 mm 6 mps 756 mmHg 42%
    15:00 +29°C° 0 mm 6 mps 755 mmHg 46%
    16:00 +28°C° 0 mm 6 mps 755 mmHg 49%
    17:00 +27°C° 0 mm 5 mps 755 mmHg 53%
    18:00 +27°C° 0 mm 4 mps 755 mmHg 58%
    19:00 +26°C° 0 mm 3 mps 755 mmHg 63%
    20:00 +25°C° 0 mm 2 mps 756 mmHg 68%
    21:00 +24°C° 0 mm 2 mps 756 mmHg 71%
    22:00 +24°C° 0 mm 2 mps 756 mmHg 73%
    23:00 +24°C° 0 mm 1 mps 756 mmHg 76%

    Tomorrow, 21 May, Tuesday

    Time Temperature Precipitation Wind Pressure Humidity
    00:00 +23°C° 0 mm 1 mps 756 mmHg 75%
    01:00 +23°C° 0 mm 1 mps 756 mmHg 74%
    02:00 +21°C° 0 mm 0 mps 756 mmHg 73%
    03:00 +21°C° 0 mm 0 mps 756 mmHg 71%
    04:00 +21°C° 0 mm 0 mps 756 mmHg 69%
    05:00 +21°C° 0 mm 0 mps 756 mmHg 67%
    06:00 +23°C° 0 mm 0 mps 756 mmHg 59%
    07:00 +27°C° 0 mm 1 mps 756 mmHg 50%
    08:00 +29°C° 0 mm 1 mps 757 mmHg 42%
    09:00 +30°C° 0 mm 2 mps 757 mmHg 39%
    10:00 +32°C° 0 mm 2 mps 757 mmHg 35%
    11:00 +34°C° 0 mm 3 mps 757 mmHg 32%
    12:00 +34°C° 0 mm 3 mps 756 mmHg 32%
    13:00 +34°C° 0 mm 4 mps 756 mmHg 33%
    14:00 +34°C° 0 mm 5 mps 756 mmHg 34%
    15:00 +33°C° 0 mm 5 mps 756 mmHg 36%
    16:00 +32°C° 0 mm 5 mps 755 mmHg 38%
    17:00 +30°C° 0 mm 5 mps 755 mmHg 41%
    18:00 +29°C° 0 mm 4 mps 756 mmHg 43%
    19:00 +28°C° 0 mm 3 mps 756 mmHg 46%
    20:00 +27°C° 0 mm 2 mps 756 mmHg 48%
    21:00 +27°C° 0 mm 2 mps 756 mmHg 48%
    22:00 +27°C° 0 mm 1 mps 756 mmHg 48%
    23:00 +26°C° 0 mm 1 mps 756 mmHg 47%

    Day after tomorrow, 22 May, Wednesday

    Time Temperature Precipitation Wind Pressure Humidity
    00:00 +26°C° 0 mm 1 mps 756 mmHg 47%
    01:00 +26°C° 0 mm 1 mps 756 mmHg 47%
    02:00 +25°C° 0 mm 1 mps 756 mmHg 47%
    03:00 +25°C° 0 mm 1 mps 756 mmHg 46%
    04:00 +25°C° 0 mm 1 mps 756 mmHg 46%
    05:00 +23°C° 0 mm 0 mps 756 mmHg 45%
    06:00 +26°C° 0 mm 0 mps 756 mmHg 39%
    07:00 +28°C° 0 mm 0 mps 756 mmHg 32%
    08:00 +30°C° 0 mm 0 mps 757 mmHg 26%
    09:00 +34°C° 0 mm 1 mps 757 mmHg 24%
    10:00 +36°C° 0 mm 2 mps 757 mmHg 22%
    11:00 +38°C° 0 mm 3 mps 757 mmHg 19%
    12:00 +37°C° 0 mm 4 mps 756 mmHg 21%
    13:00 +37°C° 0 mm 5 mps 756 mmHg 23%
    14:00 +38°C° 0 mm 6 mps 756 mmHg 24%
    15:00 +36°C° 0 mm 5 mps 755 mmHg 25%
    16:00 +36°C° 0 mm 5 mps 755 mmHg 25%
    17:00 +35°C° 0 mm 5 mps 755 mmHg 26%
    18:00 +34°C° 0 mm 4 mps 756 mmHg 27%
    19:00 +33°C° 0 mm 3 mps 756 mmHg 29%
    20:00 +31°C° 0 mm 2 mps 756 mmHg 31%
    21:00 +30°C° 0 mm 2 mps 756 mmHg 30%
    22:00 +30°C° 0 mm 2 mps 756 mmHg 30%
    23:00 +29°C° 0 mm 2 mps 756 mmHg 30%

    23 May, Thursday

    Time Temperature Precipitation Wind Pressure Humidity
    00:00 +29°C° 0 mm 2 mps 756 mmHg 29%
    01:00 +29°C° 0 mm 2 mps 755 mmHg 28%
    02:00 +28°C° 0 mm 2 mps 755 mmHg 27%
    03:00 +28°C° 0 mm 2 mps 755 mmHg 27%
    04:00 +28°C° 0 mm 2 mps 755 mmHg 27%
    05:00 +28°C° 0 mm 2 mps 755 mmHg 26%
    06:00 +30°C° 0 mm 2 mps 755 mmHg 23%
    07:00 +34°C° 0 mm 2 mps 755 mmHg 20%
    08:00 +35°C° 0 mm 1 mps 755 mmHg 17%
    09:00 +36°C° 0 mm 1 mps 755 mmHg 16%
    10:00 +38°C° 0 mm 2 mps 755 mmHg 16%
    11:00 +40°C° 0 mm 2 mps 755 mmHg 15%
    12:00 +40°C° 0 mm 3 mps 754 mmHg 15%
    13:00 +41°C° 0 mm 4 mps 754 mmHg 15%
    14:00 +42°C° 0 mm 5 mps 753 mmHg 15%
    15:00 +41°C° 0 mm 4 mps 753 mmHg 17%
    16:00 +40°C° 0 mm 4 mps 753 mmHg 18%
    17:00 +40°C° 0 mm 4 mps 753 mmHg 20%
    18:00 +37°C° 0 mm 4 mps 753 mmHg 21%
    19:00 +36°C° 0 mm 3 mps 753 mmHg 23%
    20:00 +35°C° 0 mm 3 mps 753 mmHg 24%
    21:00 +34°C° 0 mm 3 mps 753 mmHg 24%
    22:00 +34°C° 0 mm 3 mps 753 mmHg 23%
    23:00 +34°C° 0 mm 3 mps 753 mmHg 22%

    24 May, Friday

    Time Temperature Precipitation Wind Pressure Humidity
    00:00 +34°C° 0 mm 3 mps 753 mmHg 21%
    01:00 +34°C° 0 mm 4 mps 752 mmHg 19%
    02:00 +34°C° 0 mm 4 mps 752 mmHg 17%
    03:00 +34°C° 0 mm 4 mps 752 mmHg 16%
    04:00 +34°C° 0 mm 4 mps 752 mmHg 16%
    05:00 +34°C° 0 mm 5 mps 752 mmHg 15%
    06:00 +36°C° 0 mm 4 mps 752 mmHg 14%
    07:00 +38°C° 0 mm 4 mps 752 mmHg 13%
    08:00 +41°C° 0 mm 4 mps 752 mmHg 12%
    09:00 +42°C° 0 mm 4 mps 752 mmHg 11%
    10:00 +44°C° 0 mm 4 mps 752 mmHg 11%
    11:00 +45°C° 0 mm 3 mps 752 mmHg 10%
    12:00 +45°C° 0 mm 3 mps 751 mmHg 10%
    13:00 +45°C° 0 mm 3 mps 751 mmHg 10%
    14:00 +46°C° 0 mm 3 mps 750 mmHg 11%
    15:00 +44°C° 0 mm 3 mps 750 mmHg 12%
    16:00 +43°C° 0 mm 3 mps 750 mmHg 14%
    17:00 +42°C° 0 mm 3 mps 750 mmHg 16%
    18:00 +41°C° 0 mm 4 mps 750 mmHg 15%
    19:00 +41°C° 0 mm 4 mps 750 mmHg 13%
    20:00 +40°C° 0 mm 4 mps 750 mmHg 12%
    21:00 +38°C° 0 mm 4 mps 750 mmHg 12%
    22:00 +38°C° 0 mm 4 mps 750 mmHg 12%
    23:00 +38°C° 0 mm 4 mps 750 mmHg 12%

    25 May, Saturday

    Time Temperature Precipitation Wind Pressure Humidity
    00:00 +37°C° 0 mm 4 mps 750 mmHg 13%
    01:00 +36°C° 0 mm 3 mps 750 mmHg 14%
    02:00 +35°C° 0 mm 2 mps 750 mmHg 15%
    03:00 +35°C° 0 mm 3 mps 750 mmHg 15%
    04:00 +35°C° 0 mm 4 mps 750 mmHg 15%
    05:00 +34°C° 0 mm 4 mps 751 mmHg 15%
    06:00 +36°C° 0 mm 5 mps 751 mmHg 17%
    07:00 +38°C° 0 mm 6 mps 751 mmHg 19%
    08:00 +39°C° 0 mm 6 mps 752 mmHg 22%
    09:00 +38°C° 0 mm 6 mps 752 mmHg 26%
    10:00 +36°C° 0 mm 5 mps 752 mmHg 31%
    11:00 +36°C° 0 mm 5 mps 752 mmHg 35%
    12:00 +35°C° 0 mm 5 mps 752 mmHg 37%
    13:00 +35°C° 0 mm 5 mps 752 mmHg 38%
    14:00 +34°C° 0 mm 5 mps 752 mmHg 40%
    15:00 +33°C° 0 mm 4 mps 752 mmHg 44%
    16:00 +33°C° 0 mm 3 mps 752 mmHg 47%
    17:00 +31°C° 0 mm 3 mps 752 mmHg 50%
    18:00 +30°C° 0 mm 2 mps 752 mmHg 56%
    19:00 +28°C° 0 mm 2 mps 752 mmHg 61%
    20:00 +27°C° 0 mm 2 mps 753 mmHg 67%
    21:00 +27°C° 0 mm 2 mps 753 mmHg 69%
    22:00 +26°C° 0 mm 2 mps 753 mmHg 70%
    23:00 +26°C° 0 mm 2 mps 753 mmHg 72%
    Show more